Regional Weather Roundup
Issued by NWS

Home | Current Version | Previous Version | Text Only | Print | Product List | Glossary Off
Versions: 1 2 3 4 5 6 7 8 9 10 11 12 13 14 15 16 17 18 19 20 21 22 23 24 25 26 27 28 29 30 31 32 33 34 35 36 37 38 39 40 41 42 43 44 45 46 47 48 49 50

000
ASUS44 KMEG 190110
RWRTN
TENNESSEE HOURLY STATE WEATHER ROUNDUP
NATIONAL WEATHER SERVICE MEMPHIS TN
800 PM CDT THU SEP 18 2014

TNZ002-004-019-021-049-052-054-088>092-190200-
WEST TENNESSEE

CITY           SKY/WX    TMP DP  RH WIND       PRES   REMARKS
MEMPHIS INTL   CLOUDY    74  65  73 E12       29.98R
NWS MEMPHIS      N/A     72 N/A N/A MISG        N/A
JACKSON        CLOUDY    69  65  86 CALM      29.99R
DYERSBURG      MOCLDY    64  55  72 CALM      30.00R
UNION CITY     CLEAR     63  61  94 CALM      29.99R
PARIS          CLEAR     61  57  88 NE5       30.01R
HUNTINGDON     PTCLDY    63  58  83 CALM      30.00R
LEXINGTON      CLOUDY    66  63  88 NE3       29.98R
SAVANNAH       CLOUDY    70  70 100 N3        29.98S
$$

TNZ008-025-027-028-033-062-065-066-190200-
NORTH MIDDLE TENNESSEE

CITY           SKY/WX    TMP DP  RH WIND       PRES   REMARKS
NASHVILLE      CLOUDY    71  60  68 N5        30.01R
DICKSON        MOCLDY    63  61  94 CALM      30.01R
PORTLAND       CLEAR     64  59  82 CALM      30.02R
CLARKSVILLE    PTCLDY    67  58  72 NE5       30.01R
LEBANON        MOCLDY    66  60  81 CALM      30.00R
SMYRNA         MOCLDY    66  62  87 CALM      30.02R
COOKEVILLE     CLEAR     63  61  94 CALM      30.02R
LIVINGSTON     MOCLDY    64  58  81 NE3       30.04
GALLATIN       MOCLDY    67  62  84 N5        30.02R
CROSSVILLE     MOCLDY    65  58  78 NE5       30.06R
$$

TNZ061-075-076-078-094-096-097-190200-
SOUTH MIDDLE TENNESSEE

CITY           SKY/WX    TMP DP  RH WIND       PRES   REMARKS
LEWISBURG      MOCLDY    68  61  78 CALM      30.00R
FAYETTEVILLE   PTCLDY    70  59  68 N6        30.00R
TULLAHOMA      MOCLDY    70  57  64 NE3       30.02R
WINCHESTER     CLEAR     68  57  68 CALM      30.00R
MCMINNVILLE    CLEAR     64  64 100 CALM      30.02R
COLUMBIA       PTCLDY    66  64  94 CALM      29.99R
SHELBYVILLE    CLEAR     66  59  77 CALM      30.01R
$$

TNZ017-018-042-046-047-190200-
NORTHEAST TENNESSEE

CITY           SKY/WX    TMP DP  RH WIND       PRES   REMARKS
TRI CITIES     MOCLDY    65  54  67 NE3       30.05R
ELIZABETHTON   PTCLDY    63  57  82 NE3       30.06R
$$

TNZ012-013-036-069-073-074-190200-
CENTRAL EAST TENNESSEE

CITY           SKY/WX    TMP DP  RH WIND       PRES   REMARKS
KNOXVILLE      MOCLDY    68  57  68 NE5       30.00R
OAK RIDGE      MOCLDY    67  61  81 CALM      30.03R
GATLINBURG     CLEAR     64  55  72 CALM      30.02R
MORRISTOWN     CLEAR     64  57  77 CALM      30.05R
$$

TNZ083-085-099-190200-
SOUTHEAST TENNESSEE

CITY           SKY/WX    TMP DP  RH WIND       PRES   REMARKS
CHATTANOOGA    CLOUDY    72  59  63 N3        29.99R
$$

SKY/WX REPORTED AS FAIR MEANS FEW OR NO CLOUDS BELOW
12 THOUSAND FEET.




USA.gov is the U.S. government's official web portal to all federal, state and local government web resources and services.